Find Starlink 6363

NORAD ID: 57375 Int'l Des: 2023-099 Owner: SPXS Country: US Constellation: starlink operational
LEOCIRCULAR

現在のビュー

3D地球を読み込み中...

Starlink 6363について

説明を読み込み中...

次回通過

Passes for default location (London). Set your location on the main map for personalized predictions.

高度履歴

Loading altitude history...

軌道要素

1 57375U 23099AZ 26149.35484753 .00000223 00000-0 17611-4 0 9998
2 57375 43.0029 146.3146 0001051 267.9414 92.1317 15.27576461158531
Epoch: May 29, 2026 • Age: 22 hours

現在のステータス

高度 484.4 km
速度 7.63 km/s
衛星直下点 31.77°N, 165.95°W
打ち上げ日 Jul 16, 2023
運用期間 2.8 years
タイプ internet

技術仕様

分類 Payload
質量 305.00 kg
乾燥質量 290.00 kg
総質量 305.00 kg
長さ 0.20 m
直径 2.80 m
スパン 9.00 m
形状 Box + pan
製造者 SPXS
バスタイプ Starlink
フェーズステータス In Orbit
所有者/国 SPXS/US

Most Searched